Lexington Weather

Lexington, Massachusetts, USA

78°F
7/25/2024 12:05pm 
  • Lexington Conditions: Mostly cloudy
  • Temperature: 77.7°F / 25.4°CWarmer 1.4°F than last hour.
  • Dew Point: 72.5°FIncreased 0.4°Fsince last hour.
  • Relative Humidity: 84%Decreased 3.0% since last hour.
  • Wind: Wind from SE SE 4 mph, 10-min avg: 2 mph, gust: 9 mph
  • Barometer: 29.94 inFalling 0.02  inHg/hr Falling Slowly
  • Visibility: 10 miles
  • Rain Today: 0.00 in
  •   

Regional Weather Roundup
for Boston, MA

        
000
ASUS41 KBOX 210610
RWRBOX

REGIONAL WEATHER ROUNDUP
NATIONAL WEATHER SERVICE BOSTON/NORTON MA
200 AM EDT SUN JUL 21 2024

NOTE:  "FAIR" INDICATES FEW OR NO CLOUDS BELOW 12,000 FEET WITH NO 
SIGNIFICANT WEATHER AND/OR OBSTRUCTIONS TO VISIBILITY.

MAZALL-210700-
EASTERN MASSACHUSETTS
  
CITY           SKY/WX    TMP DP  RH WIND       PRES   REMARKS
BOSTON         CLOUDY    74  64  71 W10       29.97F                  
6HR MIN TEMP:  74; 6HR MAX TEMP:  80;                                

BEVERLY        MOCLDY    73  64  73 W7        29.96F                  
LAWRENCE       MOCLDY    73  65  75 SW8       29.99F                  
BEDFORD        MOCLDY    70  64  81 W6        29.97F                  
NORWOOD        CLOUDY    73  66  78 SW5       29.99F                  
MARSHFIELD     CLOUDY    73  63  68 SW6       29.98S                  
PLYMOUTH       CLOUDY    73  63  70 SW6       29.99F                  
TAUNTON        CLOUDY    74  63  68 SW3       29.99F                  
NEW BEDFORD    CLOUDY    75  65  70 W8        29.99F                  
$$

MAZALL-210700-
CAPE COD AND THE ISLANDS
  
CITY           SKY/WX    TMP DP  RH WIND       PRES   REMARKS
FALMOUTH       CLEAR     73  64  73 SW9       30.02F                  
HYANNIS        CLOUDY    73  67  81 SW10      29.99F                  
CHATHAM        CLOUDY    75  67  76 SW7       30.00F                  
PROVINCETOWN   CLOUDY    69  64  84 SW10      29.99F                  
NANTUCKET      CLOUDY    72  70  93 SW8       30.01F                  
MARTHAS VNYRD  CLOUDY    74  66  76 SW8G17    30.01F                  
$$
 
MAZALL-210700-
CENTRAL AND WESTERN MASSACHUSETTS
  
CITY           SKY/WX    TMP DP  RH WIND       PRES   REMARKS
WORCESTER      MOCLDY    68  65  90 W9        30.03S                  
6HR MIN TEMP:  68; 6HR MAX TEMP:  73;                                

FITCHBURG      MOCLDY    70  66  87 VRB5      30.00F                  
ORANGE           N/A     67  64  90 S3        30.02F                  
SPRINGFIELD    CLOUDY    67  65  91 CALM      29.98S                  
WESTFIELD      CLOUDY    68  66  93 SE3       30.00F                  
NORTH ADAMS    PTCLDY    63  63 100 CALM      30.02F                  
PITTSFIELD     MOCLDY    67  63  87 SW6       30.03F                  
$$
 
RIZALL-210700-
RHODE ISLAND
  
CITY           SKY/WX    TMP DP  RH WIND       PRES   REMARKS
PROVIDENCE     CLOUDY    72  64  76 SW8       30.00F                  
6HR MIN TEMP:  72; 6HR MAX TEMP:  76;                                

NEWPORT        CLOUDY    72  64  76 MISG      30.01S                  
BLOCK ISLAND   CLOUDY    70  67  90 SW12        N/A                   
SMITHFIELD     LGT RAIN  68  68 100 W6        30.02S                  
WESTERLY       CLOUDY    73  65  75 SW5       30.02S                  
$$
 
CTZALL-210700-
CONNECTICUT
  
CITY           SKY/WX    TMP DP  RH WIND       PRES   REMARKS
BRADLEY INTL   CLOUDY    73  68  84 S7        30.01S                  
6HR MIN TEMP:  71; 6HR MAX TEMP:  73;                                

HARTFORD       LGT RAIN  72  68  87 S5        30.00F                  
PLAINVILLE     CLOUDY    70  70 100 SW3       30.01F                  
BRIDGEPORT     CLOUDY    74  65  73 CALM      30.02F                  
DANBURY        CLOUDY    72  66  81 MISG      30.04F                  
GROTON         CLOUDY    76  67  73 W6        30.01S                  
NEW HAVEN      LGT RAIN  75  68  78 VRB5      30.03S                  
CHESTER        CLOUDY    73  68  83 SW5       30.04S                  
MERIDEN        LGT RAIN  70  67  90 CALM      30.02F                  
WILLIMANTIC    CLOUDY    67  67 100 N3        30.02S                  
OXFORD         CLOUDY    68  66  93 CALM      30.05F                  
$$

MEZ002-015-021-024-NHZ003-005-008-011-012-014-VTZ005-008-210700-
NORTHERN NEW ENGLAND
  
CITY           SKY/WX    TMP DP  RH WIND       PRES   REMARKS
PORTLAND ME    PTCLDY    65  60  84 CALM      29.94F                  
6HR MIN TEMP:  64; 6HR MAX TEMP:  73;                                

BANGOR ME      MOCLDY    66  59  78 W3        29.93S                  
CONCORD NH     MOCLDY    68  64  87 SW3       29.97F                  
MANCHESTER NH  MOCLDY    73  65  75 VRB3      29.96F                  
NASHUA NH      MOCLDY    70  70 100 CALM      29.99S                  
PORTSMOUTH NH  MOCLDY    72  66  80 SW8       29.95F                  
JAFFREY NH     MOCLDY    68  65  90 CALM      30.03F                  
KEENE NH       MOCLDY    64  63  96 CALM      30.00F                  
BURLINGTON VT  CLOUDY    72  61  68 N9        30.01R                  
MT. WASHINGTON FOG       48  48 100 W39         N/A  VSB 0            
$$

NYZ052-076-210700-
EASTERN NEW YORK
  
CITY           SKY/WX    TMP DP  RH WIND       PRES   REMARKS
ALBANY         MOCLDY    67  55  65 CALM      30.01F                  
6HR MIN TEMP:  67; 6HR MAX TEMP:  78;                                

NEW YORK CITY  MOCLDY    77  61  57 SW9       30.01F                  
6HR MIN TEMP:  77; 6HR MAX TEMP:  81;                                

$$
 
ANZALL-210700-
MARINE OBSERVATIONS
  
STATION/POSITION TIME  TEMP    WIND        PRES    VSBY  WAVE
                       AIR SEA DIR/SP/G                  HT/PER
                 (UTC) (F)     (DEG/KT/KT) (MB)    (MI)  (FT/S)
BOSTON BUOY      0550   67 64  230/ 10/ 10 1015.1F         1/ 8
BUZZARDS BAY     0500   73     240/ 17/ 18 1016.4F
NANTUCKET SOUND  0550   75 76  240/ 14/ 17 1015.4F         1/ 4
MASS BAY-STELLWA 0404   69 63  230/ 12/ 14 1015.2F  1 7/8  1/ 3
ISLE OF SHOALS   0500   75     250/ 17/ 17 1013.8F
S OF BLOCK IS    0556      73                N/A           3/ 4
$$

......................KEY.........................
  SKY/WX - SKY CONDITION/PRESENT WEATHER
  TMP    - TEMPERATURE IN FAHRENHEIT
  DWPT   - DEWPOINT IN FAHRENHEIT
  RH     - RELATIVE HUMIDITY IN PERCENT
  WIND   - DIRECTION AND SPEED IN MPH
  PRES   - MEAN SEA LEVEL PRESSURE IN INCHES OF HG
  WCI    - WIND CHILL INDEX
  VSB    - VISIBILITY IN MILES
  HX     - HEAT INDEX
  TC     - TEMPERATURE IN CELSIUS
  VRB    - VARIABLE WIND DIRECTION
  N/A    - NOT AVAILABLE
  
      

Other recent Regional Weather Roundups

Thu Jul 25, 11:10am EDT

Thu Jul 25, 10:10am EDT

Thu Jul 25, 9:10am EDT

Thu Jul 25, 8:10am EDT

Thu Jul 25, 7:10am EDT

Thu Jul 25, 6:10am EDT

Thu Jul 25, 5:10am EDT

Thu Jul 25, 4:10am EDT

Thu Jul 25, 3:10am EDT

Thu Jul 25, 2:10am EDT

Thu Jul 25, 1:10am EDT

Thu Jul 25, 12:10am EDT

Wed Jul 24, 11:10pm EDT

Wed Jul 24, 10:10pm EDT

Wed Jul 24, 9:10pm EDT

Wed Jul 24, 8:10pm EDT

Wed Jul 24, 7:10pm EDT

Wed Jul 24, 6:10pm EDT

Wed Jul 24, 5:10pm EDT

Wed Jul 24, 4:10pm EDT

Wed Jul 24, 3:10pm EDT

Wed Jul 24, 2:10pm EDT

Wed Jul 24, 1:10pm EDT

Wed Jul 24, 12:10pm EDT

Wed Jul 24, 11:10am EDT

Wed Jul 24, 10:10am EDT

Wed Jul 24, 9:10am EDT

Wed Jul 24, 8:10am EDT

Wed Jul 24, 7:10am EDT

Wed Jul 24, 6:10am EDT

Wed Jul 24, 5:10am EDT

Wed Jul 24, 4:10am EDT

Wed Jul 24, 3:10am EDT

Wed Jul 24, 2:10am EDT

Wed Jul 24, 1:10am EDT

Wed Jul 24, 12:10am EDT

Tue Jul 23, 11:10pm EDT

Tue Jul 23, 10:10pm EDT

Tue Jul 23, 9:10pm EDT

Tue Jul 23, 8:10pm EDT

Tue Jul 23, 7:10pm EDT

Tue Jul 23, 6:10pm EDT

Tue Jul 23, 5:10pm EDT

Tue Jul 23, 4:10pm EDT

Tue Jul 23, 3:10pm EDT

Tue Jul 23, 2:10pm EDT

Tue Jul 23, 1:10pm EDT

Tue Jul 23, 12:10pm EDT

Tue Jul 23, 11:10am EDT

Tue Jul 23, 10:10am EDT

Tue Jul 23, 10:10am EDT

Tue Jul 23, 9:10am EDT

Tue Jul 23, 8:10am EDT

Tue Jul 23, 7:10am EDT

Tue Jul 23, 6:10am EDT

Tue Jul 23, 5:10am EDT

Tue Jul 23, 4:10am EDT

Tue Jul 23, 3:10am EDT

Tue Jul 23, 2:10am EDT

Tue Jul 23, 1:10am EDT

Tue Jul 23, 12:10am EDT

Mon Jul 22, 11:10pm EDT

Mon Jul 22, 10:10pm EDT

Mon Jul 22, 9:10pm EDT

Mon Jul 22, 8:10pm EDT

Mon Jul 22, 7:10pm EDT

Mon Jul 22, 6:10pm EDT

Mon Jul 22, 5:10pm EDT

Mon Jul 22, 4:10pm EDT

Mon Jul 22, 3:10pm EDT

Mon Jul 22, 2:10pm EDT

Mon Jul 22, 1:10pm EDT

Mon Jul 22, 12:10pm EDT

Mon Jul 22, 11:10am EDT

Mon Jul 22, 10:10am EDT

Mon Jul 22, 9:10am EDT

Mon Jul 22, 8:10am EDT

Mon Jul 22, 7:10am EDT

Mon Jul 22, 6:10am EDT

Mon Jul 22, 5:10am EDT

Mon Jul 22, 4:10am EDT

Mon Jul 22, 3:10am EDT

Mon Jul 22, 2:10am EDT

Mon Jul 22, 1:10am EDT

Mon Jul 22, 12:10am EDT

Sun Jul 21, 11:10pm EDT

Sun Jul 21, 10:10pm EDT

Sun Jul 21, 9:10pm EDT

Sun Jul 21, 8:10pm EDT

Sun Jul 21, 7:10pm EDT

Sun Jul 21, 6:10pm EDT

Sun Jul 21, 5:10pm EDT

Sun Jul 21, 4:10pm EDT

Sun Jul 21, 3:10pm EDT

Sun Jul 21, 2:10pm EDT

Sun Jul 21, 1:10pm EDT

Sun Jul 21, 12:10pm EDT

Sun Jul 21, 11:10am EDT

Sun Jul 21, 10:10am EDT

Sun Jul 21, 9:10am EDT

Sun Jul 21, 8:10am EDT

Sun Jul 21, 7:10am EDT

Sun Jul 21, 6:10am EDT

Sun Jul 21, 5:10am EDT

Sun Jul 21, 4:10am EDT

Sun Jul 21, 3:10am EDT

Sun Jul 21, 1:10am EDT

Sun Jul 21, 12:10am EDT

Sat Jul 20, 11:10pm EDT

Sat Jul 20, 10:10pm EDT

Sat Jul 20, 9:10pm EDT

Sat Jul 20, 8:10pm EDT

Sat Jul 20, 7:10pm EDT

Sat Jul 20, 6:10pm EDT

Sat Jul 20, 5:10pm EDT

Sat Jul 20, 4:10pm EDT

Sat Jul 20, 3:10pm EDT

Sat Jul 20, 2:10pm EDT

Sat Jul 20, 1:10pm EDT

Sat Jul 20, 12:10pm EDT

Sat Jul 20, 11:10am EDT

Sat Jul 20, 10:10am EDT

Sat Jul 20, 9:10am EDT

Sat Jul 20, 8:10am EDT

Sat Jul 20, 7:10am EDT

Sat Jul 20, 6:10am EDT

Sat Jul 20, 5:10am EDT

Sat Jul 20, 4:10am EDT

Sat Jul 20, 3:10am EDT

Sat Jul 20, 2:10am EDT

Sat Jul 20, 1:10am EDT

Sat Jul 20, 12:10am EDT

Fri Jul 19, 11:10pm EDT

Fri Jul 19, 10:10pm EDT

Fri Jul 19, 9:10pm EDT

Fri Jul 19, 8:10pm EDT

Fri Jul 19, 7:10pm EDT

Fri Jul 19, 6:10pm EDT

Fri Jul 19, 5:10pm EDT

Fri Jul 19, 4:10pm EDT

Fri Jul 19, 3:10pm EDT

Fri Jul 19, 2:10pm EDT

Fri Jul 19, 1:10pm EDT

Fri Jul 19, 12:10pm EDT

Fri Jul 19, 11:10am EDT

Fri Jul 19, 10:10am EDT

Fri Jul 19, 9:10am EDT

Fri Jul 19, 8:10am EDT

Fri Jul 19, 7:10am EDT

Fri Jul 19, 6:10am EDT

Fri Jul 19, 5:10am EDT

Fri Jul 19, 4:10am EDT

Fri Jul 19, 3:10am EDT

Fri Jul 19, 2:10am EDT

Fri Jul 19, 1:10am EDT

Fri Jul 19, 12:10am EDT

Thu Jul 18, 11:10pm EDT

Thu Jul 18, 10:10pm EDT

Thu Jul 18, 9:10pm EDT

Thu Jul 18, 8:10pm EDT

Thu Jul 18, 7:10pm EDT

Thu Jul 18, 6:10pm EDT

Thu Jul 18, 5:10pm EDT

Thu Jul 18, 4:10pm EDT

Thu Jul 18, 3:10pm EDT

Thu Jul 18, 2:10pm EDT

Thu Jul 18, 1:10pm EDT

Thu Jul 18, 12:10pm EDT